Location: Forli
(44.2227°N, 12.0407°E)
Time: 03:13:07
(UTC+02:00)

DX 1 - Pass Details

Date: 14 April 2026
Orbit: 593 x 604 km, 98.4° (Epoch: 19 May)

Event Time Altitude Azimuth Distance (km) Brightness Sun altitude
Rises 04:38:50 0° 8° (N) 2,843 ? -19.0°
Reaches altitude 10° 04:41:03 10° 4° (N) 1,936 ? -18.6°
Maximum altitude 04:45:07 52° 288° (WNW) 746 ? -18.0°
Enters shadow 04:46:16 39° 239° (WSW) 901 ? -17.9°
